Regional Weather Roundup
Issued by NWS Cleveland, OH

Home | Current Version | Previous Version | Graphics & Text | Print | Product List | Glossary On
Versions: 1 2 3 4 5 6 7 8 9 10 11 12 13 14 15 16 17 18 19 20 21 22 23 24 25 26 27 28 29 30 31 32 33 34 35 36 37 38 39 40 41 42 43 44 45 46 47 48 49 50
000
ASUS41 KCLE 011900
RWRCLE
OHIO REGIONAL WEATHER ROUNDUP
NATIONAL WEATHER SERVICE WILMINGTON, OH
300 PM EDT TUE SEP 01 2015

NOTE: "FAIR" INDICATES FEW OR NO CLOUDS BELOW 12,000 FEET WITH NO
SIGNIFICANT WEATHER AND/OR OBSTRUCTIONS TO VISIBILITY.

OHZ001>008-015>018-024>027-034-035-043-044-012000-
   NORTHWEST OHIO

CITY           SKY/WX    TMP DP  RH WIND       PRES   REMARKS
DEFIANCE       PTSUNNY   87  67  51 SW6       30.07F HX  90
FINDLAY        MOSUNNY   87  67  51 W7        30.08F HX  90
TOLEDO EXPRESS MOSUNNY   85  68  56 SW8       30.07F
TOLEDO EXEC    SUNNY     86  65  49 SW10      30.07F
LIMA           MOSUNNY   86  66  51 SW9       30.10F
$$

OHZ009>014-019>023-028>033-038-089-012000-
   NORTHEAST OHIO

CITY           SKY/WX    TMP DP  RH WIND       PRES   REMARKS
CLE-HOPKINS    MOSUNNY   86  69  56 N9        30.11F HX  90
CLE-LAKEFRONT  SUNNY     82  71  69 N6        30.08F
CUY CO. ARPT   MOSUNNY   88  70  55 NW12      30.11S HX  92
LORAIN-ELYRIA  MOSUNNY   86  69  56 N6        30.09F HX  90
ASHTABULA      MOSUNNY   84  69  60 NW9       30.11F
AKRON-CANTON   MOSUNNY   88  65  46 SW9       30.11F HX  90
WOOSTER        NOT AVBL
MANSFIELD      MOSUNNY   87  65  47 SW13      30.12F
YOUNGSTOWN     MOSUNNY   87  64  46 VRB3      30.11S
$$

OHZ042-051>053-060>062-070>072-077>081-012000-
  SOUTHWEST OHIO

CITY           SKY/WX    TMP DP  RH WIND       PRES   REMARKS
CINC-COVINGTON PTSUNNY   87  65  47 SW8       30.12F
CINC-LUNKEN    PTSUNNY   86  68  54 SW3       30.10F
HAMILTON       MOSUNNY   89  65  44 W7        30.11F HX  91
DAYTON         NOT AVBL
WRIGHT-PAT AFB NOT AVBL
DAYTON GENERAL PTSUNNY   84  68  58 SW6       30.12F
WILMINGTON     MOSUNNY   84  66  54 SW8       30.12F
$$

OHZ036-037-039>041-045>050-054>059-063>069-073>076-082>088-012000-
  CENTRAL AND SOUTHEAST OHIO

CITY           SKY/WX    TMP DP  RH WIND       PRES   REMARKS
COLUMBUS       PTSUNNY   85  67  54 SW7       30.10F
OSU AIRPORT    MOSUNNY   86  66  51 VRB3      30.11F
BOLTON FIELD   PTSUNNY   86  70  58 SW5       30.11F HX  90
RICKENBACK AFB NOT AVBL
NEWARK         MOSUNNY   87  68  52 NW5       30.10F HX  90
MARION         PTSUNNY   87  67  51 SW8       30.10F HX  90
LANCASTER      MOSUNNY   88  65  46 W7        30.11F HX  90
ZANESVILLE     MOSUNNY   87  64  46 VRB6      30.10F
NEW PHILLY     MOSUNNY   89  66  46 VRB5      30.10F HX  91
$$



USA.gov is the U.S. government's official web portal to all federal, state and local government web resources and services.